Year,Month,Day,Hour,Minute,Value (Times are PST for temperature in C)
2020,05,08,00,00,9.70
2020,05,08,00,01,9.70
2020,05,08,00,02,9.70
2020,05,08,00,03,9.70
2020,05,08,00,04,9.60
2020,05,08,00,05,9.60
2020,05,08,00,06,9.60
2020,05,08,00,07,9.60
2020,05,08,00,08,9.50
2020,05,08,00,09,9.50
2020,05,08,00,10,9.50
2020,05,08,00,11,9.40
2020,05,08,00,12,9.40
2020,05,08,00,13,9.40
2020,05,08,00,14,9.30
2020,05,08,00,15,9.30
2020,05,08,00,16,9.30
2020,05,08,00,17,9.30
2020,05,08,00,18,9.30
2020,05,08,00,19,9.20
2020,05,08,00,20,9.20
2020,05,08,00,21,9.20
2020,05,08,00,22,9.20
2020,05,08,00,23,9.20
2020,05,08,00,24,9.20
2020,05,08,00,25,9.20
2020,05,08,00,26,9.20
2020,05,08,00,27,9.10
2020,05,08,00,28,9.10
2020,05,08,00,29,9.10
2020,05,08,00,30,9.10
2020,05,08,00,31,9.20
2020,05,08,00,32,9.20
2020,05,08,00,33,9.20
2020,05,08,00,34,9.20
2020,05,08,00,35,9.20
2020,05,08,00,36,9.20
2020,05,08,00,37,9.20
2020,05,08,00,38,9.20
2020,05,08,00,39,9.20
2020,05,08,00,40,9.20
2020,05,08,00,41,9.20
2020,05,08,00,42,9.10
2020,05,08,00,43,9.10
2020,05,08,00,44,9.10
2020,05,08,00,45,9.10
2020,05,08,00,46,9.10
2020,05,08,00,47,9.10
2020,05,08,00,48,9.10
2020,05,08,00,49,9.10
2020,05,08,00,50,9.10
2020,05,08,00,51,9.10
2020,05,08,00,52,9.20
2020,05,08,00,53,9.20
2020,05,08,00,54,9.20
2020,05,08,00,55,9.20
2020,05,08,00,56,9.30
2020,05,08,00,57,9.30
2020,05,08,00,58,9.30
2020,05,08,00,59,9.30
2020,05,08,01,00,9.30
2020,05,08,01,01,9.30
2020,05,08,01,02,9.30
2020,05,08,01,03,9.20
2020,05,08,01,04,9.20
2020,05,08,01,05,9.20
2020,05,08,01,06,9.20
2020,05,08,01,07,9.20
2020,05,08,01,08,9.20
2020,05,08,01,09,9.10
2020,05,08,01,10,9.10
2020,05,08,01,11,9.10
2020,05,08,01,12,9.10
2020,05,08,01,13,9.10
2020,05,08,01,14,9.10
2020,05,08,01,15,9.10
2020,05,08,01,16,9.10
2020,05,08,01,17,9.00
2020,05,08,01,18,9.00
2020,05,08,01,19,9.00
2020,05,08,01,20,8.90
2020,05,08,01,21,8.90
2020,05,08,01,22,8.90
2020,05,08,01,23,8.90
2020,05,08,01,24,8.80
2020,05,08,01,25,8.80
2020,05,08,01,26,8.80
2020,05,08,01,27,8.80
2020,05,08,01,28,8.80
2020,05,08,01,29,8.80
2020,05,08,01,30,8.80
2020,05,08,01,31,8.80
2020,05,08,01,32,8.80
2020,05,08,01,33,8.80
2020,05,08,01,34,8.80
2020,05,08,01,35,8.80
2020,05,08,01,36,8.70
2020,05,08,01,37,8.70
2020,05,08,01,38,8.70
2020,05,08,01,39,8.70
2020,05,08,01,40,8.70
2020,05,08,01,41,8.70
2020,05,08,01,42,8.70
2020,05,08,01,43,8.70
2020,05,08,01,44,8.70
2020,05,08,01,45,8.70
2020,05,08,01,46,8.70
2020,05,08,01,47,8.60
2020,05,08,01,48,8.60
2020,05,08,01,49,8.60
2020,05,08,01,50,8.60
2020,05,08,01,51,8.60
2020,05,08,01,52,8.60
2020,05,08,01,53,8.60
2020,05,08,01,54,8.60
2020,05,08,01,55,8.60
2020,05,08,01,56,8.60
2020,05,08,01,57,8.60
2020,05,08,01,58,8.60
2020,05,08,01,59,8.60
2020,05,08,02,00,8.60
2020,05,08,02,01,8.50
2020,05,08,02,02,8.50
2020,05,08,02,03,8.50
2020,05,08,02,04,8.50
2020,05,08,02,05,8.50
2020,05,08,02,06,8.40
2020,05,08,02,07,8.40
2020,05,08,02,08,8.40
2020,05,08,02,09,8.40
2020,05,08,02,10,8.40
2020,05,08,02,11,8.40
2020,05,08,02,12,8.40
2020,05,08,02,13,8.30
2020,05,08,02,14,8.30
2020,05,08,02,15,8.30
2020,05,08,02,16,8.30
2020,05,08,02,17,8.30
2020,05,08,02,18,8.30
2020,05,08,02,19,8.30
2020,05,08,02,20,8.30
2020,05,08,02,21,8.20
2020,05,08,02,22,8.20
2020,05,08,02,23,8.20
2020,05,08,02,24,8.20
2020,05,08,02,25,8.20
2020,05,08,02,26,8.20
2020,05,08,02,27,8.20
2020,05,08,02,28,8.20
2020,05,08,02,29,8.20
2020,05,08,02,30,8.20
2020,05,08,02,31,8.10
2020,05,08,02,32,8.10
2020,05,08,02,33,8.10
2020,05,08,02,34,8.10
2020,05,08,02,35,8.10
2020,05,08,02,36,8.10
2020,05,08,02,37,8.10
2020,05,08,02,38,8.10
2020,05,08,02,39,8.10
2020,05,08,02,40,8.10
2020,05,08,02,41,8.10
2020,05,08,02,42,8.10
2020,05,08,02,43,8.10
2020,05,08,02,44,8.10
2020,05,08,02,45,8.10
2020,05,08,02,46,8.10
2020,05,08,02,47,8.10
2020,05,08,02,48,8.10
2020,05,08,02,49,8.10
2020,05,08,02,50,8.10
2020,05,08,02,51,8.10
2020,05,08,02,52,8.10
2020,05,08,02,53,8.10
2020,05,08,02,54,8.10
2020,05,08,02,55,8.00
2020,05,08,02,56,8.00
2020,05,08,02,57,8.00
2020,05,08,02,58,8.00
2020,05,08,02,59,7.90
2020,05,08,03,00,7.90
2020,05,08,03,01,7.90
2020,05,08,03,02,8.00
2020,05,08,03,03,8.00
2020,05,08,03,04,8.00
2020,05,08,03,05,8.00
2020,05,08,03,06,8.10
2020,05,08,03,07,8.10
2020,05,08,03,08,8.10
2020,05,08,03,09,8.10
2020,05,08,03,10,8.20
2020,05,08,03,11,8.20
2020,05,08,03,12,8.30
2020,05,08,03,13,8.40
2020,05,08,03,14,8.60
2020,05,08,03,15,8.70
2020,05,08,03,16,8.80
2020,05,08,03,17,9.00
2020,05,08,03,18,9.20
2020,05,08,03,19,9.30
2020,05,08,03,20,9.50
2020,05,08,03,21,9.70
2020,05,08,03,22,9.90
2020,05,08,03,23,10.10
2020,05,08,03,24,10.30
2020,05,08,03,25,10.50
2020,05,08,03,26,10.60
2020,05,08,03,27,10.70
2020,05,08,03,28,10.80
2020,05,08,03,29,10.90
2020,05,08,03,30,11.00
2020,05,08,03,31,11.10
2020,05,08,03,32,11.10
2020,05,08,03,33,11.20
2020,05,08,03,34,11.30
2020,05,08,03,35,11.30
2020,05,08,03,36,11.40
2020,05,08,03,37,11.40
2020,05,08,03,38,11.50
2020,05,08,03,39,11.60
2020,05,08,03,40,11.60
2020,05,08,03,41,11.70
2020,05,08,03,42,11.70
2020,05,08,03,43,11.60
2020,05,08,03,44,11.70
2020,05,08,03,45,11.70
2020,05,08,03,46,11.70
2020,05,08,03,47,11.70
2020,05,08,03,48,11.70
2020,05,08,03,49,11.80
2020,05,08,03,50,11.80
2020,05,08,03,51,11.80
2020,05,08,03,52,11.80
2020,05,08,03,53,11.80
2020,05,08,03,54,11.90
2020,05,08,03,55,11.90
2020,05,08,03,56,12.00
2020,05,08,03,57,12.00
2020,05,08,03,58,12.10
2020,05,08,03,59,12.10
2020,05,08,04,00,12.10
2020,05,08,04,01,12.20
2020,05,08,04,02,12.30
2020,05,08,04,03,12.30
2020,05,08,04,04,12.40
2020,05,08,04,05,12.50
2020,05,08,04,06,12.60
2020,05,08,04,07,12.70
2020,05,08,04,08,12.70
2020,05,08,04,09,12.80
2020,05,08,04,10,12.90
2020,05,08,04,11,13.00
2020,05,08,04,12,13.10
2020,05,08,04,13,13.20
2020,05,08,04,14,13.20
2020,05,08,04,15,13.20
2020,05,08,04,16,13.20
2020,05,08,04,17,13.10
2020,05,08,04,18,13.10
2020,05,08,04,19,13.00
2020,05,08,04,20,13.00
2020,05,08,04,21,13.00
2020,05,08,04,22,13.00
2020,05,08,04,23,13.00
2020,05,08,04,24,13.00
2020,05,08,04,25,13.00
2020,05,08,04,26,13.00
2020,05,08,04,27,13.00
2020,05,08,04,28,13.10
2020,05,08,04,29,13.10
2020,05,08,04,30,13.10
2020,05,08,04,31,13.10
2020,05,08,04,32,13.10
2020,05,08,04,33,13.20
2020,05,08,04,34,13.30
2020,05,08,04,35,13.30
2020,05,08,04,36,13.40
2020,05,08,04,37,13.40
2020,05,08,04,38,13.40
2020,05,08,04,39,13.50
2020,05,08,04,40,13.50
2020,05,08,04,41,13.50
2020,05,08,04,42,13.60
2020,05,08,04,43,13.60
2020,05,08,04,44,13.60
2020,05,08,04,45,13.60
2020,05,08,04,46,13.60
2020,05,08,04,47,13.60
2020,05,08,04,48,13.70
2020,05,08,04,49,13.70
2020,05,08,04,50,13.70
2020,05,08,04,51,13.70
2020,05,08,04,52,13.70
2020,05,08,04,53,13.70
2020,05,08,04,54,13.80
2020,05,08,04,55,13.80
2020,05,08,04,56,13.80
2020,05,08,04,57,13.70
2020,05,08,04,58,13.70
2020,05,08,04,59,13.70
2020,05,08,05,00,13.70
2020,05,08,05,01,13.70
2020,05,08,05,02,13.60
2020,05,08,05,03,13.60
2020,05,08,05,04,13.60
2020,05,08,05,05,13.60
2020,05,08,05,06,13.60
2020,05,08,05,07,13.60
2020,05,08,05,08,13.60
2020,05,08,05,09,13.60
2020,05,08,05,10,13.60
2020,05,08,05,11,13.60
2020,05,08,05,12,13.60
2020,05,08,05,13,13.60
2020,05,08,05,14,13.70
2020,05,08,05,15,13.70
2020,05,08,05,16,13.70
2020,05,08,05,17,13.70
2020,05,08,05,18,13.70
2020,05,08,05,19,13.70
2020,05,08,05,20,13.70
2020,05,08,05,21,13.70
2020,05,08,05,22,13.70
2020,05,08,05,23,13.70
2020,05,08,05,24,13.70
2020,05,08,05,25,13.70
2020,05,08,05,26,13.70
2020,05,08,05,27,13.60
2020,05,08,05,28,13.60
2020,05,08,05,29,13.50
2020,05,08,05,30,13.50
2020,05,08,05,31,13.40
2020,05,08,05,32,13.30
2020,05,08,05,33,13.30
2020,05,08,05,34,13.20
2020,05,08,05,35,13.20
2020,05,08,05,36,13.20
2020,05,08,05,37,13.10
2020,05,08,05,38,13.10
2020,05,08,05,39,13.10
2020,05,08,05,40,13.00
2020,05,08,05,41,13.00
2020,05,08,05,42,12.90
2020,05,08,05,43,12.90
2020,05,08,05,44,12.80
2020,05,08,05,45,12.80
2020,05,08,05,46,12.70
2020,05,08,05,47,12.70
2020,05,08,05,48,12.60
2020,05,08,05,49,12.60
2020,05,08,05,50,12.60
2020,05,08,05,51,12.70
2020,05,08,05,52,12.70
2020,05,08,05,53,12.60
2020,05,08,05,54,12.60
2020,05,08,05,55,12.60
2020,05,08,05,56,12.60
2020,05,08,05,57,12.60
2020,05,08,05,58,12.60
2020,05,08,05,59,12.60
2020,05,08,06,00,12.60
2020,05,08,06,01,12.60
2020,05,08,06,02,12.60
2020,05,08,06,03,12.60
2020,05,08,06,04,12.60
2020,05,08,06,05,12.60
2020,05,08,06,06,12.60
2020,05,08,06,07,12.60
2020,05,08,06,08,12.60
2020,05,08,06,09,12.60
2020,05,08,06,10,12.60
2020,05,08,06,11,12.60
2020,05,08,06,12,12.70
2020,05,08,06,13,12.70
2020,05,08,06,14,12.70
2020,05,08,06,15,12.80
2020,05,08,06,16,12.80
2020,05,08,06,17,12.80
2020,05,08,06,18,12.90
2020,05,08,06,19,13.00
2020,05,08,06,20,13.00
2020,05,08,06,21,13.10
2020,05,08,06,22,13.10
2020,05,08,06,23,13.20
2020,05,08,06,24,13.20
2020,05,08,06,25,13.30
2020,05,08,06,26,13.30
2020,05,08,06,27,13.40
2020,05,08,06,28,13.50
2020,05,08,06,29,13.50
2020,05,08,06,30,13.60
2020,05,08,06,31,13.60
2020,05,08,06,32,13.60
2020,05,08,06,33,13.60
2020,05,08,06,34,13.60
2020,05,08,06,35,13.60
2020,05,08,06,36,13.70
2020,05,08,06,37,13.80
2020,05,08,06,38,13.80
2020,05,08,06,39,13.90
2020,05,08,06,40,14.00
2020,05,08,06,41,14.10
2020,05,08,06,42,14.20
2020,05,08,06,43,14.30
2020,05,08,06,44,14.40
2020,05,08,06,45,14.50
2020,05,08,06,46,14.50
2020,05,08,06,47,14.50
2020,05,08,06,48,14.60
2020,05,08,06,49,14.60
2020,05,08,06,50,14.70
2020,05,08,06,51,14.70
2020,05,08,06,52,14.80
2020,05,08,06,53,14.80
2020,05,08,06,54,14.90
2020,05,08,06,55,14.90
2020,05,08,06,56,14.90
2020,05,08,06,57,14.90
2020,05,08,06,58,15.00
2020,05,08,06,59,15.10
2020,05,08,07,00,15.10
2020,05,08,07,01,15.10
2020,05,08,07,02,15.20
2020,05,08,07,03,15.20
2020,05,08,07,04,15.30
2020,05,08,07,05,15.40
2020,05,08,07,06,15.40
2020,05,08,07,07,15.50
2020,05,08,07,08,15.60
2020,05,08,07,09,15.60
2020,05,08,07,10,15.70
2020,05,08,07,11,15.70
2020,05,08,07,12,15.70
2020,05,08,07,13,15.70
2020,05,08,07,14,15.80
2020,05,08,07,15,15.80
2020,05,08,07,16,15.80
2020,05,08,07,17,15.90
2020,05,08,07,18,15.90
2020,05,08,07,19,15.90
2020,05,08,07,20,16.00
2020,05,08,07,21,16.00
2020,05,08,07,22,16.00
2020,05,08,07,23,16.10
2020,05,08,07,24,16.10
2020,05,08,07,25,16.10
2020,05,08,07,26,16.10
2020,05,08,07,27,16.10
2020,05,08,07,28,16.10
2020,05,08,07,29,16.20
2020,05,08,07,30,16.20
2020,05,08,07,31,16.20
2020,05,08,07,32,16.20
2020,05,08,07,33,16.20
2020,05,08,07,34,16.30
2020,05,08,07,35,16.30
2020,05,08,07,36,16.30
2020,05,08,07,37,16.30
2020,05,08,07,38,16.30
2020,05,08,07,39,16.30
2020,05,08,07,40,16.30
2020,05,08,07,41,16.30
2020,05,08,07,42,16.30
2020,05,08,07,43,16.30
2020,05,08,07,44,16.30
2020,05,08,07,45,16.30
2020,05,08,07,46,16.30
2020,05,08,07,47,16.40
2020,05,08,07,48,16.40
2020,05,08,07,49,16.40
2020,05,08,07,50,16.50
2020,05,08,07,51,16.50
2020,05,08,07,52,16.60
2020,05,08,07,53,16.60
2020,05,08,07,54,16.60
2020,05,08,07,55,16.60
2020,05,08,07,56,16.60
2020,05,08,07,57,16.70
2020,05,08,07,58,16.70
2020,05,08,07,59,16.70
2020,05,08,08,00,16.70
2020,05,08,08,01,16.70
2020,05,08,08,02,16.70
2020,05,08,08,03,16.70
2020,05,08,08,04,16.80
2020,05,08,08,05,16.80
2020,05,08,08,06,16.80
2020,05,08,08,07,16.80
2020,05,08,08,08,16.80
2020,05,08,08,09,16.80
2020,05,08,08,10,16.90
2020,05,08,08,11,16.90
2020,05,08,08,12,16.90
2020,05,08,08,13,17.00
2020,05,08,08,14,17.00
2020,05,08,08,15,17.00
2020,05,08,08,16,17.00
2020,05,08,08,17,17.00
2020,05,08,08,18,17.10
2020,05,08,08,19,17.10
2020,05,08,08,20,17.10
2020,05,08,08,21,17.10
2020,05,08,08,22,17.10
2020,05,08,08,23,17.00
2020,05,08,08,24,17.00
2020,05,08,08,25,17.00
2020,05,08,08,26,16.90
2020,05,08,08,27,16.90
2020,05,08,08,28,16.90
2020,05,08,08,29,16.90
2020,05,08,08,30,16.90
2020,05,08,08,31,16.90
2020,05,08,08,32,16.90
2020,05,08,08,33,16.90
2020,05,08,08,34,16.90
2020,05,08,08,35,16.90
2020,05,08,08,36,17.00
2020,05,08,08,37,17.00
2020,05,08,08,38,17.00
2020,05,08,08,39,17.10
2020,05,08,08,40,17.10
2020,05,08,08,41,17.00
2020,05,08,08,42,17.00
2020,05,08,08,43,16.90
2020,05,08,08,44,16.90
2020,05,08,08,45,16.80
2020,05,08,08,46,16.80
2020,05,08,08,47,16.80
2020,05,08,08,48,16.80
2020,05,08,08,49,16.80
2020,05,08,08,50,16.80
2020,05,08,08,51,16.80
2020,05,08,08,52,16.90
2020,05,08,08,53,16.90
2020,05,08,08,54,17.00
2020,05,08,08,55,17.00
2020,05,08,08,56,17.00
2020,05,08,08,57,17.10
2020,05,08,08,58,17.10
2020,05,08,08,59,17.10
2020,05,08,09,00,17.10
2020,05,08,09,01,17.10
2020,05,08,09,02,17.00
2020,05,08,09,03,17.00
2020,05,08,09,04,17.10
2020,05,08,09,05,17.10
2020,05,08,09,06,17.10
2020,05,08,09,07,17.10
2020,05,08,09,08,17.20
2020,05,08,09,09,17.20
2020,05,08,09,10,17.10
2020,05,08,09,11,17.10
2020,05,08,09,12,17.10
2020,05,08,09,13,17.10
2020,05,08,09,14,17.10
2020,05,08,09,15,17.10
2020,05,08,09,16,17.20
2020,05,08,09,17,17.20
2020,05,08,09,18,17.20
2020,05,08,09,19,17.20
2020,05,08,09,20,17.20
2020,05,08,09,21,17.20
2020,05,08,09,22,17.20
2020,05,08,09,23,17.20
2020,05,08,09,24,17.20
2020,05,08,09,25,17.20
2020,05,08,09,26,17.20
2020,05,08,09,27,17.30
2020,05,08,09,28,17.30
2020,05,08,09,29,17.30
2020,05,08,09,30,17.40
2020,05,08,09,31,17.40
2020,05,08,09,32,17.40
2020,05,08,09,33,17.30
2020,05,08,09,34,17.30
2020,05,08,09,35,17.30
2020,05,08,09,36,17.30
2020,05,08,09,37,17.30
2020,05,08,09,38,17.40
2020,05,08,09,39,17.40
2020,05,08,09,40,17.40
2020,05,08,09,41,17.50
2020,05,08,09,42,17.50
2020,05,08,09,43,17.50
2020,05,08,09,44,17.50
2020,05,08,09,45,17.50
2020,05,08,09,46,17.60
2020,05,08,09,47,17.60
2020,05,08,09,48,17.70
2020,05,08,09,49,17.70
2020,05,08,09,50,17.70
2020,05,08,09,51,17.70
2020,05,08,09,52,17.70
2020,05,08,09,53,17.70
2020,05,08,09,54,17.70
2020,05,08,09,55,17.70
2020,05,08,09,56,17.70
2020,05,08,09,57,17.60
2020,05,08,09,58,17.60
2020,05,08,09,59,17.60
2020,05,08,10,00,17.60
2020,05,08,10,01,17.70
2020,05,08,10,02,17.80
2020,05,08,10,03,17.80
2020,05,08,10,04,17.80
2020,05,08,10,05,17.80
2020,05,08,10,06,17.90
2020,05,08,10,07,18.00
2020,05,08,10,08,18.00
2020,05,08,10,09,18.10
2020,05,08,10,10,18.10
2020,05,08,10,11,18.10
2020,05,08,10,12,18.20
2020,05,08,10,13,18.20
2020,05,08,10,14,18.20
2020,05,08,10,15,18.20
2020,05,08,10,16,18.20
2020,05,08,10,17,18.20
2020,05,08,10,18,18.20
2020,05,08,10,19,18.20
2020,05,08,10,20,18.20
2020,05,08,10,21,18.30
2020,05,08,10,22,18.30
2020,05,08,10,23,18.30
2020,05,08,10,24,18.40
2020,05,08,10,25,18.40
2020,05,08,10,26,18.40
2020,05,08,10,27,18.50
2020,05,08,10,28,18.50
2020,05,08,10,29,18.60
2020,05,08,10,30,18.60
2020,05,08,10,31,18.50
2020,05,08,10,32,18.50
2020,05,08,10,33,18.50
2020,05,08,10,34,18.50
2020,05,08,10,35,18.50
2020,05,08,10,36,18.40
2020,05,08,10,37,18.40
2020,05,08,10,38,18.40
2020,05,08,10,39,18.40
2020,05,08,10,40,18.40
2020,05,08,10,41,18.40
2020,05,08,10,42,18.50
2020,05,08,10,43,18.50
2020,05,08,10,44,18.60
2020,05,08,10,45,18.60
2020,05,08,10,46,18.70
2020,05,08,10,47,18.70
2020,05,08,10,48,18.80
2020,05,08,10,49,18.90
2020,05,08,10,50,18.90
2020,05,08,10,51,19.00
2020,05,08,10,52,19.10
2020,05,08,10,53,19.10
2020,05,08,10,54,19.10
2020,05,08,10,55,19.10
2020,05,08,10,56,19.00
2020,05,08,10,57,19.00
2020,05,08,10,58,19.00
2020,05,08,10,59,18.90
2020,05,08,11,00,19.00
2020,05,08,11,01,19.00
2020,05,08,11,02,19.00
2020,05,08,11,03,19.00
2020,05,08,11,04,19.00
2020,05,08,11,05,19.00
2020,05,08,11,06,19.10
2020,05,08,11,07,19.10
2020,05,08,11,08,19.20
2020,05,08,11,09,19.20
2020,05,08,11,10,19.20
2020,05,08,11,11,19.20
2020,05,08,11,12,19.20
2020,05,08,11,13,19.20
2020,05,08,11,14,19.30
2020,05,08,11,15,19.30
2020,05,08,11,16,19.30
2020,05,08,11,17,19.40
2020,05,08,11,18,19.40
2020,05,08,11,19,19.40
2020,05,08,11,20,19.40
2020,05,08,11,21,19.40
2020,05,08,11,22,19.40
2020,05,08,11,23,19.40
2020,05,08,11,24,19.40
2020,05,08,11,25,19.40
2020,05,08,11,26,19.40
2020,05,08,11,27,19.40
2020,05,08,11,28,19.40
2020,05,08,11,29,19.40
2020,05,08,11,30,19.50
2020,05,08,11,31,19.60
2020,05,08,11,32,19.70
2020,05,08,11,33,19.70
2020,05,08,11,34,19.70
2020,05,08,11,35,19.60
2020,05,08,11,36,19.60
2020,05,08,11,37,19.60
2020,05,08,11,38,19.60
2020,05,08,11,39,19.70
2020,05,08,11,40,19.70
2020,05,08,11,41,19.70
2020,05,08,11,42,19.70
2020,05,08,11,43,19.70
2020,05,08,11,44,19.80
2020,05,08,11,45,19.90
2020,05,08,11,46,20.10
2020,05,08,11,47,20.20
2020,05,08,11,48,20.30
2020,05,08,11,49,20.30
2020,05,08,11,50,20.30
2020,05,08,11,51,20.30
2020,05,08,11,52,20.20
2020,05,08,11,53,20.20
2020,05,08,11,54,20.20
2020,05,08,11,55,20.10
2020,05,08,11,56,20.10
2020,05,08,11,57,20.10
2020,05,08,11,58,20.00
2020,05,08,11,59,20.10
2020,05,08,12,00,20.10
2020,05,08,12,01,20.10
2020,05,08,12,02,20.10
2020,05,08,12,03,20.10
2020,05,08,12,04,20.00
2020,05,08,12,05,19.90
2020,05,08,12,06,19.90
2020,05,08,12,07,19.90
2020,05,08,12,08,19.90
2020,05,08,12,09,19.90
2020,05,08,12,10,19.80
2020,05,08,12,11,19.90
2020,05,08,12,12,19.90
2020,05,08,12,13,20.00
2020,05,08,12,14,20.10
2020,05,08,12,15,20.10
2020,05,08,12,16,20.10
2020,05,08,12,17,20.20
2020,05,08,12,18,20.30
2020,05,08,12,19,20.30
2020,05,08,12,20,20.40
2020,05,08,12,21,20.40
2020,05,08,12,22,20.50
2020,05,08,12,23,20.60
2020,05,08,12,24,20.60
2020,05,08,12,25,20.60
2020,05,08,12,26,20.60
2020,05,08,12,27,20.60
2020,05,08,12,28,20.60
2020,05,08,12,29,20.60
2020,05,08,12,30,20.60
2020,05,08,12,31,20.60
2020,05,08,12,32,20.60
2020,05,08,12,33,20.70
2020,05,08,12,34,20.70
2020,05,08,12,35,20.60
2020,05,08,12,36,20.50
2020,05,08,12,37,20.50
2020,05,08,12,38,20.50
2020,05,08,12,39,20.50
2020,05,08,12,40,20.50
2020,05,08,12,41,20.50
2020,05,08,12,42,20.50
2020,05,08,12,43,20.60
2020,05,08,12,44,20.60
2020,05,08,12,45,20.60
2020,05,08,12,46,20.60
2020,05,08,12,47,20.70
2020,05,08,12,48,20.70
2020,05,08,12,49,20.70
2020,05,08,12,50,20.70
2020,05,08,12,51,20.70
2020,05,08,12,52,20.70
2020,05,08,12,53,20.80
2020,05,08,12,54,20.80
2020,05,08,12,55,20.80
2020,05,08,12,56,20.90
2020,05,08,12,57,20.90
2020,05,08,12,58,20.90
2020,05,08,12,59,21.00
2020,05,08,13,00,21.00
2020,05,08,13,01,21.00
2020,05,08,13,02,21.00
2020,05,08,13,03,21.00
2020,05,08,13,04,21.00
2020,05,08,13,05,21.00
2020,05,08,13,06,21.10
2020,05,08,13,07,21.10
2020,05,08,13,08,21.20
2020,05,08,13,09,21.30
2020,05,08,13,10,21.40
2020,05,08,13,11,21.50
2020,05,08,13,12,21.50
2020,05,08,13,13,21.40
2020,05,08,13,14,21.40
2020,05,08,13,15,21.30
2020,05,08,13,16,21.30
2020,05,08,13,17,21.30
2020,05,08,13,18,21.30
2020,05,08,13,19,21.30
2020,05,08,13,20,21.30
2020,05,08,13,21,21.30
2020,05,08,13,22,21.30
2020,05,08,13,23,21.30
2020,05,08,13,24,21.30
2020,05,08,13,25,21.40
2020,05,08,13,26,21.40
2020,05,08,13,27,21.50
2020,05,08,13,28,21.60
2020,05,08,13,29,21.60
2020,05,08,13,30,21.60
2020,05,08,13,31,21.60
2020,05,08,13,32,21.60
2020,05,08,13,33,21.60
2020,05,08,13,34,21.70
2020,05,08,13,35,21.70
2020,05,08,13,36,21.70
2020,05,08,13,37,21.70
2020,05,08,13,38,21.60
2020,05,08,13,39,21.60
2020,05,08,13,40,21.60
2020,05,08,13,41,21.60
2020,05,08,13,42,21.60
2020,05,08,13,43,21.60
2020,05,08,13,44,21.60
2020,05,08,13,45,21.60
2020,05,08,13,46,21.60
2020,05,08,13,47,21.60
2020,05,08,13,48,21.70
2020,05,08,13,49,21.70
2020,05,08,13,50,21.80
2020,05,08,13,51,21.90
2020,05,08,13,52,21.90
2020,05,08,13,53,21.90
2020,05,08,13,54,22.00
2020,05,08,13,55,22.10
2020,05,08,13,56,22.20
2020,05,08,13,57,22.30
2020,05,08,13,58,22.30
2020,05,08,13,59,22.30
2020,05,08,14,00,22.30
2020,05,08,14,01,22.30
2020,05,08,14,02,22.20
2020,05,08,14,03,22.20
2020,05,08,14,04,22.30
2020,05,08,14,05,22.20
2020,05,08,14,06,22.20
2020,05,08,14,07,22.30
2020,05,08,14,08,22.30
2020,05,08,14,09,22.40
2020,05,08,14,10,22.40
2020,05,08,14,11,22.30
2020,05,08,14,12,22.30
2020,05,08,14,13,22.30
2020,05,08,14,14,22.30
2020,05,08,14,15,22.30
2020,05,08,14,16,22.40
2020,05,08,14,17,22.50
2020,05,08,14,18,22.60
2020,05,08,14,19,22.60
2020,05,08,14,20,22.70
2020,05,08,14,21,22.80
2020,05,08,14,22,22.80
2020,05,08,14,23,22.90
2020,05,08,14,24,22.80
2020,05,08,14,25,22.80
2020,05,08,14,26,22.80
2020,05,08,14,27,22.80
2020,05,08,14,28,22.80
2020,05,08,14,29,22.80
2020,05,08,14,30,22.80
2020,05,08,14,31,22.90
2020,05,08,14,32,22.80
2020,05,08,14,33,22.80
2020,05,08,14,34,22.80
2020,05,08,14,35,22.80
2020,05,08,14,36,22.80
2020,05,08,14,37,22.80
2020,05,08,14,38,22.80
2020,05,08,14,39,22.70
2020,05,08,14,40,22.70
2020,05,08,14,41,22.70
2020,05,08,14,42,22.70
2020,05,08,14,43,22.70
2020,05,08,14,44,22.80
2020,05,08,14,45,22.80
2020,05,08,14,46,22.80
2020,05,08,14,47,22.80
2020,05,08,14,48,22.90
2020,05,08,14,49,22.90
2020,05,08,14,50,22.90
2020,05,08,14,51,22.80
2020,05,08,14,52,22.90
2020,05,08,14,53,22.90
2020,05,08,14,54,22.90
2020,05,08,14,55,22.90
2020,05,08,14,56,22.90
2020,05,08,14,57,22.90
2020,05,08,14,58,22.90
2020,05,08,14,59,22.80
2020,05,08,15,00,22.80
2020,05,08,15,01,22.80
2020,05,08,15,02,22.90
2020,05,08,15,03,22.90
2020,05,08,15,04,23.00
2020,05,08,15,05,23.00
2020,05,08,15,06,23.10
2020,05,08,15,07,23.10
2020,05,08,15,08,23.10
2020,05,08,15,09,23.20
2020,05,08,15,10,23.20
2020,05,08,15,11,23.30
2020,05,08,15,12,23.30
2020,05,08,15,13,23.40
2020,05,08,15,14,23.40
2020,05,08,15,15,23.40
2020,05,08,15,16,23.40
2020,05,08,15,17,23.40
2020,05,08,15,18,23.50
2020,05,08,15,19,23.50
2020,05,08,15,20,23.60
2020,05,08,15,21,23.60
2020,05,08,15,22,23.60
2020,05,08,15,23,23.60
2020,05,08,15,24,23.60
2020,05,08,15,25,23.70
2020,05,08,15,26,23.70
2020,05,08,15,27,23.80
2020,05,08,15,28,23.90
2020,05,08,15,29,23.90
2020,05,08,15,30,23.90
2020,05,08,15,31,23.90
2020,05,08,15,32,23.90
2020,05,08,15,33,23.70
2020,05,08,15,34,23.60
2020,05,08,15,35,23.50
2020,05,08,15,36,23.50
2020,05,08,15,37,23.40
2020,05,08,15,38,23.40
2020,05,08,15,39,23.40
2020,05,08,15,40,23.40
2020,05,08,15,41,23.50
2020,05,08,15,42,23.60
2020,05,08,15,43,23.70
2020,05,08,15,44,23.70
2020,05,08,15,45,23.70
2020,05,08,15,46,23.70
2020,05,08,15,47,23.70
2020,05,08,15,48,23.70
2020,05,08,15,49,23.70
2020,05,08,15,50,23.70
2020,05,08,15,51,23.60
2020,05,08,15,52,23.60
2020,05,08,15,53,23.50
2020,05,08,15,54,23.40
2020,05,08,15,55,23.40
2020,05,08,15,56,23.50
2020,05,08,15,57,23.50
2020,05,08,15,58,23.60
2020,05,08,15,59,23.60
2020,05,08,16,00,23.70
2020,05,08,16,01,23.70
2020,05,08,16,02,23.70
2020,05,08,16,03,23.80
2020,05,08,16,04,23.80
2020,05,08,16,05,23.70
2020,05,08,16,06,23.70
2020,05,08,16,07,23.70
2020,05,08,16,08,23.70
2020,05,08,16,09,23.70
2020,05,08,16,10,23.70
2020,05,08,16,11,23.60
2020,05,08,16,12,23.60
2020,05,08,16,13,23.60
2020,05,08,16,14,23.60
2020,05,08,16,15,23.60
2020,05,08,16,16,23.60
2020,05,08,16,17,23.60
2020,05,08,16,18,23.60
2020,05,08,16,19,23.60
2020,05,08,16,20,23.60
2020,05,08,16,21,23.60
2020,05,08,16,22,23.60
2020,05,08,16,23,23.60
2020,05,08,16,24,23.60
2020,05,08,16,25,23.60
2020,05,08,16,26,23.60
2020,05,08,16,27,23.60
2020,05,08,16,28,23.60
2020,05,08,16,29,23.70
2020,05,08,16,30,23.70
2020,05,08,16,31,23.70
2020,05,08,16,32,23.70
2020,05,08,16,33,23.80
2020,05,08,16,34,23.80
2020,05,08,16,35,23.80
2020,05,08,16,36,23.80
2020,05,08,16,37,23.80
2020,05,08,16,38,23.80
2020,05,08,16,39,23.80
2020,05,08,16,40,23.70
2020,05,08,16,41,23.70
2020,05,08,16,42,23.70
2020,05,08,16,43,23.70
2020,05,08,16,44,23.70
2020,05,08,16,45,23.70
2020,05,08,16,46,23.80
2020,05,08,16,47,23.80
2020,05,08,16,48,23.80
2020,05,08,16,49,23.80
2020,05,08,16,50,23.80
2020,05,08,16,51,23.90
2020,05,08,16,52,23.90
2020,05,08,16,53,23.90
2020,05,08,16,54,23.80
2020,05,08,16,55,23.80
2020,05,08,16,56,23.80
2020,05,08,16,57,23.90
2020,05,08,16,58,23.90
2020,05,08,16,59,23.90
2020,05,08,17,00,24.00
2020,05,08,17,01,24.00
2020,05,08,17,02,24.00
2020,05,08,17,03,24.00
2020,05,08,17,04,24.10
2020,05,08,17,05,24.10
2020,05,08,17,06,24.20
2020,05,08,17,07,24.20
2020,05,08,17,08,24.20
2020,05,08,17,09,24.10
2020,05,08,17,10,24.10
2020,05,08,17,11,24.10
2020,05,08,17,12,24.10
2020,05,08,17,13,24.10
2020,05,08,17,14,24.10
2020,05,08,17,15,24.00
2020,05,08,17,16,24.00
2020,05,08,17,17,24.00
2020,05,08,17,18,24.00
2020,05,08,17,19,24.10
2020,05,08,17,20,24.10
2020,05,08,17,21,24.10
2020,05,08,17,22,24.10
2020,05,08,17,23,24.10
2020,05,08,17,24,24.10
2020,05,08,17,25,24.10
2020,05,08,17,26,24.20
2020,05,08,17,27,24.20
2020,05,08,17,28,24.20